Total_Precipitation_Accumulation
0.00 0.00 0.01 0.01 0.01 0.02 0.02 0.02 0.04 0.05 0.07 0.14 0.23 0.38 0.55 0.62 0.69 0.76 0.86 0.87 1.07 1.16 1.36 1.70 2.09 2.38 2.67 2.60 2.58 2.45 2.48 2.66 2.71 2.84 2.96 3.21 3.19 3.17 3.43 3.69 3.81 3.98 4.04 3.87
0.00 0.00 0.01 0.01 0.01 0.02 0.02 0.03 0.06 0.11 0.14 0.22 0.33 0.46 0.62 0.72 0.69 0.83 0.99 1.01 1.33 1.50 1.56 1.80 2.16 2.44 2.67 2.71 2.66 2.64 2.77 2.81 2.90 3.23 3.68 4.09 4.40 4.56 4.62 4.80 4.80 4.67 4.50 4.36
0.00 0.00 0.00 0.00 0.01 0.02 0.03 0.04 0.07 0.13 0.20 0.27 0.40 0.70 0.79 0.75 0.76 0.93 1.14 1.18 1.37 1.62 1.79 1.72 1.77 1.93 2.24 2.49 2.64 2.67 2.92 3.25 3.60 4.07 4.60 5.02 5.37 5.54 5.40 5.21 5.09 4.87 4.64 4.43
0.01 0.01 0.00 0.00 0.01 0.02 0.04 0.04 0.05 0.08 0.17 0.33 0.38 0.71 0.85 0.85 0.96 1.06 1.17 1.12 1.26 1.33 1.51 1.65 1.62 1.69 1.95 2.20 2.47 2.74 2.99 3.54 4.27 4.91 5.47 5.93 6.09 6.06 5.89 5.61 5.22 4.80 4.44 4.12
0.01 0.01 0.01 0.01 0.01 0.01 0.02 0.02 0.04 0.08 0.11 0.24 0.30 0.58 0.87 0.93 1.01 1.10 1.27 1.18 1.16 1.21 1.25 1.35 1.43 1.54 1.75 1.97 2.28 2.65 3.04 3.68 4.33 4.94 5.50 5.91 6.09 5.98 5.69 5.23 4.73 4.23 3.75 3.38
0.01 0.01 0.00 0.00 0.00 0.00 0.01 0.02 0.05 0.10 0.14 0.29 0.28 0.46 0.93 1.15 1.23 1.37 1.36 1.42 1.49 1.35 1.26 1.25 1.25 1.30 1.44 1.69 2.00 2.40 2.82 3.31 3.80 4.19 4.71 5.02 5.19 5.12 4.80 4.31 3.71 3.25 2.93 2.63
0.03 0.02 0.01 0.00 0.00 0.01 0.01 0.04 0.14 0.23 0.27 0.33 0.27 0.49 1.03 1.30 1.32 1.42 1.40 1.50 1.58 1.46 1.35 1.26 1.20 1.17 1.26 1.47 1.79 2.03 2.27 2.64 2.90 3.23 3.62 3.85 3.86 3.71 3.49 3.24 2.94 2.52 2.15 1.86
0.08 0.06 0.02 0.01 0.01 0.01 0.01 0.03 0.19 0.39 0.37 0.39 0.48 0.85 1.29 1.32 1.21 1.23 1.28 1.29 1.30 1.19 1.19 1.22 1.23 1.21 1.27 1.32 1.46 1.63 1.74 1.91 2.03 2.17 2.36 2.40 2.37 2.29 2.25 2.10 1.88 1.64 1.37 1.11
0.15 0.10 0.03 0.01 0.01 0.01 0.01 0.04 0.09 0.17 0.25 0.45 0.82 1.30 1.62 1.46 1.38 1.29 1.15 1.00 1.08 1.07 1.05 1.11 1.15 1.20 1.24 1.23 1.22 1.20 1.20 1.24 1.24 1.26 1.38 1.43 1.41 1.38 1.33 1.21 1.08 0.96 0.87 0.76
0.13 0.11 0.05 0.03 0.02 0.02 0.03 0.05 0.08 0.15 0.43 0.62 0.89 1.34 1.84 1.89 1.83 1.75 1.45 1.15 1.12 1.12 1.15 1.02 0.94 0.99 1.06 1.02 0.98 0.92 0.91 0.90 0.83 0.77 0.79 0.83 0.87 0.83 0.79 0.74 0.69 0.64 0.60 0.54
0.11 0.11 0.09 0.06 0.07 0.07 0.06 0.07 0.09 0.17 0.30 0.60 1.06 1.60 1.71 1.95 2.01 1.85 1.57 1.28 1.24 1.20 1.16 1.09 1.08 1.00 0.99 0.95 0.91 0.85 0.81 0.78 0.73 0.69 0.68 0.63 0.58 0.55 0.50 0.47 0.44 0.41 0.38 0.35
0.12 0.16 0.15 0.11 0.10 0.08 0.09 0.09 0.11 0.25 0.30 0.43 0.93 1.70 1.78 1.99 2.07 1.91 1.85 1.64 1.42 1.33 1.24 1.18 1.17 1.06 0.95 0.86 0.83 0.82 0.74 0.67 0.64 0.60 0.56 0.52 0.47 0.43 0.40 0.37 0.33 0.29 0.27 0.26
0.12 0.25 0.36 0.46 0.36 0.17 0.12 0.10 0.14 0.16 0.27 0.50 0.92 1.71 1.90 1.98 1.90 1.82 1.70 1.64 1.68 1.68 1.55 1.34 1.17 0.98 0.82 0.71 0.68 0.68 0.66 0.61 0.56 0.55 0.55 0.53 0.46 0.41 0.39 0.36 0.32 0.27 0.26 0.25
0.12 0.26 0.49 0.87 0.69 0.31 0.17 0.15 0.18 0.21 0.42 0.65 0.87 1.37 1.67 1.86 1.94 1.98 1.89 1.84 1.81 1.57 1.21 0.99 0.91 0.83 0.74 0.69 0.64 0.58 0.55 0.54 0.52 0.53 0.56 0.57 0.56 0.49 0.44 0.39 0.36 0.30 0.26 0.23
0.15 0.29 0.31 0.37 0.34 0.24 0.22 0.21 0.24 0.30 0.34 0.58 0.85 1.27 1.65 1.81 1.91 1.93 1.98 1.88 1.62 1.36 1.14 0.97 0.89 0.84 0.77 0.68 0.59 0.51 0.48 0.46 0.46 0.49 0.50 0.50 0.49 0.48 0.43 0.39 0.36 0.32 0.27 0.24
0.18 0.35 0.32 0.34 0.31 0.35 0.39 0.35 0.36 0.37 0.46 0.63 0.94 1.36 1.60 1.83 1.92 1.85 1.87 1.78 1.69 1.54 1.36 1.19 1.06 0.97 0.88 0.73 0.62 0.58 0.56 0.54 0.51 0.52 0.50 0.44 0.40 0.38 0.35 0.33 0.28 0.25 0.25 0.24
0.24 0.34 0.46 0.45 0.31 0.47 0.76 0.56 0.48 0.52 0.60 0.80 1.11 1.35 1.33 1.42 1.59 1.69 1.72 1.68 1.68 1.62 1.53 1.40 1.28 1.18 1.06 0.91 0.81 0.76 0.73 0.64 0.59 0.59 0.54 0.48 0.43 0.39 0.33 0.28 0.28 0.26 0.26 0.25
0.25 0.40 0.47 0.52 0.60 1.03 1.00 0.65 0.59 0.65 0.74 0.71 0.85 0.95 1.04 1.11 1.21 1.33 1.41 1.57 1.71 1.70 1.59 1.49 1.35 1.24 1.17 1.05 0.92 0.80 0.69 0.62 0.59 0.59 0.54 0.47 0.44 0.41 0.35 0.33 0.34 0.29 0.27 0.28
0.18 0.39 0.57 0.68 0.96 1.19 1.04 0.69 0.68 0.94 1.09 0.73 0.67 0.72 0.74 0.79 0.94 1.26 1.38 1.53 1.67 1.65 1.57 1.50 1.35 1.25 1.19 1.06 0.89 0.75 0.69 0.62 0.59 0.53 0.47 0.43 0.41 0.41 0.38 0.35 0.34 0.30 0.29 0.29
0.17 0.30 0.61 0.81 1.16 1.46 1.34 0.65 0.46 0.82 1.39 0.88 0.69 0.73 0.78 0.92 1.12 1.17 1.09 1.15 1.35 1.50 1.57 1.51 1.32 1.14 1.04 0.88 0.72 0.65 0.63 0.58 0.53 0.42 0.35 0.35 0.37 0.36 0.32 0.31 0.32 0.29 0.28 0.28
0.43 0.51 0.70 0.93 1.27 1.38 0.77 0.43 0.53 1.14 1.36 1.05 0.87 0.84 0.93 1.11 1.15 0.94 0.85 0.95 1.10 1.25 1.34 1.27 1.15 1.02 0.85 0.68 0.61 0.60 0.52 0.46 0.38 0.31 0.29 0.31 0.34 0.35 0.31 0.30 0.33 0.32 0.29 0.32
0.59 0.79 0.90 1.06 1.36 1.35 0.53 0.40 0.71 0.89 0.75 0.73 0.69 0.65 0.70 0.69 0.67 0.67 0.74 0.88 1.01 1.09 1.07 1.03 0.98 0.87 0.73 0.62 0.61 0.61 0.55 0.43 0.34 0.34 0.32 0.32 0.32 0.24 0.21 0.30 0.33 0.31 0.34 0.35
0.48 0.66 0.84 1.03 1.19 0.92 0.48 0.39 0.41 0.49 0.55 0.53 0.53 0.49 0.53 0.57 0.58 0.58 0.64 0.76 0.86 0.89 0.85 0.77 0.68 0.66 0.62 0.59 0.59 0.60 0.53 0.40 0.39 0.45 0.43 0.37 0.32 0.27 0.23 0.26 0.28 0.29 0.30 0.29
0.51 0.38 0.52 0.74 0.72 0.58 0.45 0.39 0.33 0.31 0.37 0.36 0.37 0.40 0.48 0.56 0.58 0.57 0.55 0.58 0.63 0.67 0.67 0.64 0.59 0.60 0.56 0.50 0.47 0.49 0.44 0.39 0.47 0.52 0.47 0.39 0.36 0.33 0.28 0.25 0.20 0.23 0.22 0.21
0.55 0.61 0.80 0.93 0.74 0.66 0.58 0.44 0.35 0.30 0.28 0.27 0.31 0.35 0.39 0.41 0.43 0.41 0.42 0.43 0.44 0.45 0.51 0.53 0.51 0.47 0.42 0.36 0.34 0.31 0.31 0.33 0.47 0.50 0.45 0.38 0.30 0.28 0.30 0.24 0.14 0.13 0.12 0.09
0.42 0.71 1.15 1.00 0.78 0.79 0.66 0.48 0.40 0.39 0.41 0.39 0.32 0.29 0.29 0.31 0.32 0.31 0.34 0.37 0.36 0.36 0.40 0.41 0.40 0.35 0.30 0.27 0.27 0.24 0.22 0.24 0.34 0.39 0.36 0.30 0.23 0.22 0.21 0.21 0.18 0.10 0.07 0.06